Location: Hains Lake
(37.8540°N, 99.8578°W)
Time: 16:29:23
(UTC+00:00)

Vanguard 1 - Pass Details

Date: 02 December 2021
Orbit: 652 x 3830 km, 34.2° (Epoch: 22 January)

Event Time Altitude Azimuth Distance (km) Brightness Sun altitude
Exits shadow 11:27:59 32° 271° (W) 4,775 12.9 -25.0°
Maximum altitude 11:39:27 67° 201° (SSW) 2,888 12.2 -22.8°
Drops below altitude 10° 11:51:35 10° 122° (ESE) 4,181 14.3 -20.4°
Sets 11:54:12 0° 119° (ESE) 4,854 15.0 -19.9°
